DW6650 Weather Reports


Display with metric or nautical units.
time (UTC)temp
F
wind
direction
speed
MPH
gust
MPH
rain 1hr
in
rain 24hr
in
rain mn
in
humidity
%
barometer
mb
20260506213016 86 203 2.0 5.0 0.00 0.00 0.00 55 1013.4
20260506212537 86 225 3.0 7.0 0.00 0.00 0.00 55 1013.3
20260506212036 86 203 1.0 3.0 0.00 0.00 0.00 55 1013.3
20260506211516 86 203 1.0 4.0 0.00 0.00 0.00 55 1013.3
20260506211016 86 203 1.0 2.0 0.00 0.00 0.00 55 1013.5
20260506210537 86 203 1.0 4.0 0.00 0.00 0.00 55 1013.6
20260506210037 86 203 2.0 6.0 0.00 0.00 0.00 56 1013.8
20260506205536 86 248 2.0 5.0 0.00 0.00 0.00 56 1013.9
20260506205037 86 248 2.0 7.0 0.00 0.00 0.00 55 1013.8
20260506204516 86 225 2.0 7.0 0.00 0.00 0.00 55 1014.0
20260506204016 86 225 3.0 15.0 0.00 0.00 0.00 54 1013.9
20260506203516 86 225 1.0 5.0 0.00 0.00 0.00 55 1014.1
20260506203036 86 248 1.0 3.0 0.00 0.00 0.00 55 1014.0
20260506202516 86 225 1.0 3.0 0.00 0.00 0.00 54 1014.1
20260506202016 86 203 1.0 5.0 0.00 0.00 0.00 54 1014.3
20260506201516 86 225 3.0 10.0 0.00 0.00 0.00 53 1014.4
20260506201016 86 203 4.0 12.0 0.00 0.00 0.00 54 1014.4
20260506200516 86 158 1.0 2.0 0.00 0.00 0.00 55 1014.5
20260506200016 86 203 3.0 12.0 0.00 0.00 0.00 56 1014.7
20260506195516 85 203 4.0 13.0 0.00 0.00 0.00 54 1014.7
20260506195016 85 225 1.0 4.0 0.00 0.00 0.00 55 1014.8
20260506194521 85 225 2.0 5.0 0.00 0.00 0.00 54 1014.8
20260506194016 85 203 2.0 7.0 0.00 0.00 0.00 53 1015.0
20260506193516 85 203 1.0 4.0 0.00 0.00 0.00 53 1015.2
20260506193016 85 203 0.0 2.0 0.00 0.00 0.00 53 1015.2
20260506192516 85 203 2.0 13.0 0.00 0.00 0.00 54 1015.1
20260506192016 85 225 2.0 8.0 0.00 0.00 0.00 53 1015.2
20260506191517 85 203 2.0 4.0 0.00 0.00 0.00 53 1015.2
20260506191016 85 203 2.0 5.0 0.00 0.00 0.00 53 1015.3
20260506190516 85 203 3.0 9.0 0.00 0.00 0.00 53 1015.5
20260506190016 84 203 3.0 6.0 0.00 0.00 0.00 52 1015.7
20260506185516 84 203 1.0 4.0 0.00 0.00 0.00 53 1015.6
20260506185016 84 203 3.0 10.0 0.00 0.00 0.00 50 1015.7
20260506184516 84 203 2.0 5.0 0.00 0.00 0.00 51 1015.6
20260506184016 84 248 3.0 15.0 0.00 0.00 0.00 50 1015.5
20260506183516 84 203 2.0 5.0 0.00 0.00 0.00 49 1015.7
20260506183016 84 203 2.0 9.0 0.00 0.00 0.00 48 1015.6
20260506182537 84 225 2.0 13.0 0.00 0.00 0.00 48 1015.5
20260506182016 84 225 3.0 10.0 0.00 0.00 0.00 47 1015.6
20260506181536 84 158 1.0 2.0 0.00 0.00 0.00 47 1015.6
20260506181016 84 225 1.0 7.0 0.00 0.00 0.00 49 1015.6
20260506180516 84 225 2.0 10.0 0.00 0.00 0.00 49 1015.6
20260506180016 83 248 4.0 12.0 0.00 0.00 0.00 48 1015.6
20260506175516 83 248 4.0 12.0 0.00 0.00 0.00 48 1015.7
20260506175016 83 225 2.0 10.0 0.00 0.00 0.00 45 1015.6
20260506174516 83 248 2.0 6.0 0.00 0.00 0.00 54 1015.7
20260506174019 82 203 2.0 5.0 0.00 0.00 0.00 53 1015.8
20260506173516 82 203 1.0 4.0 0.00 0.00 0.00 53 1015.8
20260506173016 82 203 3.0 13.0 0.00 0.00 0.00 54 1016.0
20260506172516 82 225 1.0 3.0 0.00 0.00 0.00 54 1016.0
20260506172016 82 225 1.0 3.0 0.00 0.00 0.00 56 1016.1
20260506171516 81 203 1.0 4.0 0.00 0.00 0.00 56 1016.2
20260506171017 81 270 3.0 9.0 0.00 0.00 0.00 57 1016.2
20260506170515 81 225 3.0 10.0 0.00 0.00 0.00 59 1016.4
20260506170016 81 203 3.0 10.0 0.00 0.00 0.00 59 1016.4
20260506165516 80 225 4.0 9.0 0.00 0.00 0.00 60 1016.6
20260506165016 80 225 3.0 14.0 0.00 0.00 0.00 59 1016.7
20260506164516 80 203 2.0 4.0 0.00 0.00 0.00 59 1016.8
20260506164038 80 225 2.0 7.0 0.00 0.00 0.00 58 1016.9
20260506163517 80 225 3.0 8.0 0.00 0.00 0.00 57 1017.0
20260506163017 79 203 3.0 10.0 0.00 0.00 0.00 57 1017.1
20260506162517 79 180 2.0 9.0 0.00 0.00 0.00 62 1017.2
20260506162017 78 158 1.0 4.0 0.00 0.00 0.00 64 1017.3
20260506161517 78 203 0.0 4.0 0.00 0.00 0.00 63 1017.3
20260506161017 78 225 1.0 3.0 0.00 0.00 0.00 62 1017.4
20260506160517 78 225 1.0 4.0 0.00 0.00 0.00 62 1017.3
20260506160038 78 203 3.0 10.0 0.00 0.00 0.00 61 1017.4
20260506155537 79 180 2.0 5.0 0.00 0.00 0.00 60 1017.3
20260506155017 79 225 2.0 9.0 0.00 0.00 0.00 60 1017.2
20260506154517 78 203 2.0 5.0 0.00 0.00 0.00 62 1017.2
20260506154017 78 203 3.0 9.0 0.00 0.00 0.00 62 1017.1
20260506153517 78 248 2.0 9.0 0.00 0.00 0.00 65 1017.1
20260506153017 77 203 3.0 7.0 0.00 0.00 0.00 67 1017.2
20260506152537 77 203 3.0 14.0 0.00 0.00 0.00 67 1017.4
20260506152017 77 203 2.0 5.0 0.00 0.00 0.00 69 1017.2
20260506151517 76 203 1.0 3.0 0.00 0.00 0.00 69 1017.2
20260506151017 76 225 1.0 3.0 0.00 0.00 0.00 70 1017.3
20260506150517 75 203 1.0 6.0 0.00 0.00 0.00 71 1017.3
20260506150017 75 203 2.0 6.0 0.00 0.00 0.00 73 1017.2
20260506145517 75 225 1.0 2.0 0.00 0.00 0.00 74 1017.1
20260506145038 75 225 1.0 5.0 0.00 0.00 0.00 74 1017.0
20260506144517 75 225 0.0 2.0 0.00 0.00 0.00 74 1017.0
20260506144057 75 203 1.0 5.0 0.00 0.00 0.00 73 1017.1
20260506143517 75 203 1.0 2.0 0.00 0.00 0.00 74 1017.1
20260506143017 74 225 2.0 5.0 0.00 0.00 0.00 75 1016.9
20260506142537 74 293 1.0 3.0 0.00 0.00 0.00 75 1016.9
20260506142019 74 203 0.0 3.0 0.00 0.00 0.00 76 1016.8
20260506141517 73 203 0.0 2.0 0.00 0.00 0.00 75 1016.7
20260506141017 73 225 1.0 4.0 0.00 0.00 0.00 77 1016.7
20260506140537 72 225 0.0 1.0 0.00 0.00 0.00 78 1016.4
20260506140017 72 203 1.0 3.0 0.00 0.00 0.00 78 1016.6
20260506135537 72 158 1.0 3.0 0.00 0.00 0.00 79 1016.5
20260506135037 71 225 0.0 2.0 0.00 0.00 0.00 80 1016.4
20260506134519 70 225 0.0 2.0 0.00 0.00 0.00 80 1016.4
20260506134037 70 225 0.0 1.0 0.00 0.00 0.00 81 1016.4
20260506133537 70 223 0.0 0.0 0.00 0.00 0.00 82 1016.4
20260506133017 69 223 0.0 0.0 0.00 0.00 0.00 82 1016.4
20260506132517 69 225 0.0 2.0 0.00 0.00 0.00 82 1016.5
20260506132017 69 248 0.0 2.0 0.00 0.00 0.00 83 1016.5
20260506131537 69 180 0.0 1.0 0.00 0.00 0.00 83 1016.4
20260506131017 68 180 0.0 1.0 0.00 0.00 0.00 83 1016.4
20260506130517 68 180 0.0 1.0 0.00 0.00 0.00 84 1016.3
20260506130017 68 180 0.0 1.0 0.00 0.00 0.00 84 1016.3
20260506125517 67 135 0.0 2.0 0.00 0.00 0.00 84 1016.3
20260506125017 67 135 0.0 1.0 0.00 0.00 0.00 84 1016.2
20260506124517 67 135 0.0 1.0 0.00 0.00 0.00 85 1016.2
20260506124017 67 295 0.0 0.0 0.00 0.00 0.00 84 1016.2
20260506123537 67 295 0.0 0.0 0.00 0.00 0.00 85 1016.0
20260506123017 66 295 0.0 0.0 0.00 0.00 0.00 85 1016.2
20260506122537 66 295 0.0 0.0 0.00 0.00 0.00 85 1016.2
20260506122017 66 295 0.0 0.0 0.00 0.00 0.00 85 1016.1
20260506121517 66 295 0.0 0.0 0.00 0.00 0.00 85 1015.9
20260506121016 66 295 0.0 0.0 0.00 0.00 0.00 85 1015.9
20260506120517 66 295 0.0 0.0 0.00 0.00 0.00 85 1015.9
20260506120017 65 295 0.0 0.0 0.00 0.00 0.00 85 1016.0
20260506115517 65 295 0.0 0.0 0.00 0.00 0.00 85 1016.0
20260506115017 65 295 0.0 0.0 0.00 0.00 0.00 85 1015.9
20260506114537 65 295 0.0 0.0 0.00 0.00 0.00 85 1015.9
20260506114057 65 295 0.0 0.0 0.00 0.00 0.00 85 1015.6
20260506113538 65 295 0.0 0.0 0.00 0.00 0.00 85 1015.6
20260506113017 65 295 0.0 0.0 0.00 0.00 0.00 85 1015.6
20260506112517 65 295 0.0 0.0 0.00 0.00 0.00 85 1015.5
20260506112017 65 295 0.0 0.0 0.00 0.00 0.00 85 1015.3
20260506111557 64 295 0.0 0.0 0.00 0.00 0.00 85 1015.1
20260506111037 64 293 0.0 1.0 0.00 0.00 0.00 86 1015.1
20260506110537 64 68 0.0 1.0 0.00 0.00 0.00 85 1015.0
20260506110017 64 61 0.0 0.0 0.00 0.00 0.00 84 1015.0
20260506105517 64 61 0.0 0.0 0.00 0.00 0.00 84 1015.1
20260506105017 64 61 0.0 0.0 0.00 0.00 0.00 84 1015.1
20260506104516 64 61 0.0 0.0 0.00 0.00 0.00 84 1014.8
20260506104017 64 61 0.0 0.0 0.00 0.00 0.00 84 1014.9
20260506103516 64 61 0.0 0.0 0.00 0.00 0.00 84 1014.8
20260506103037 64 68 0.0 1.0 0.00 0.00 0.00 84 1014.8
20260506102517 64 68 0.0 1.0 0.00 0.00 0.00 83 1014.7
20260506102016 64 68 0.0 1.0 0.00 0.00 0.00 83 1014.7
20260506101517 64 61 0.0 0.0 0.00 0.00 0.00 82 1014.7
20260506101017 64 61 0.0 0.0 0.00 0.00 0.00 82 1014.7
20260506100516 64 68 0.0 1.0 0.00 0.00 0.00 82 1014.7
20260506100016 64 61 0.0 0.0 0.00 0.00 0.00 82 1014.7
20260506095516 64 68 0.0 1.0 0.00 0.00 0.00 82 1014.6
20260506095016 64 61 0.0 0.0 0.00 0.00 0.00 81 1014.7
20260506094536 64 68 0.0 1.0 0.00 0.00 0.00 81 1014.7
20260506094036 64 68 0.0 1.0 0.00 0.00 0.00 80 1014.7
20260506093517 64 61 0.0 0.0 0.00 0.00 0.00 80 1014.7
20260506093036 65 68 0.0 2.0 0.00 0.00 0.00 80 1014.8
20260506092516 65 71 0.0 0.0 0.00 0.00 0.00 80 1014.6
20260506092016 65 68 0.0 2.0 0.00 0.00 0.00 80 1014.7
20260506091516 65 71 0.0 0.0 0.00 0.00 0.00 80 1014.6
20260506091037 65 68 0.0 2.0 0.00 0.00 0.00 80 1014.5
20260506090516 65 90 0.0 1.0 0.00 0.00 0.00 79 1014.6
20260506090016 65 90 0.0 2.0 0.00 0.00 0.00 79 1014.7
20260506085516 65 113 0.0 1.0 0.00 0.00 0.00 79 1014.6
20260506085016 65 108 0.0 0.0 0.00 0.00 0.00 79 1014.9
20260506084516 65 108 0.0 0.0 0.00 0.00 0.00 79 1014.9
20260506084016 65 113 0.0 1.0 0.00 0.00 0.00 79 1015.0
20260506083516 65 108 0.0 0.0 0.00 0.00 0.00 79 1015.1
20260506083016 65 113 0.0 1.0 0.00 0.00 0.00 79 1015.2
20260506082516 65 108 0.0 0.0 0.00 0.00 0.00 79 1015.2
20260506082036 65 108 0.0 0.0 0.00 0.00 0.00 79 1015.2
20260506081516 65 113 0.0 2.0 0.00 0.00 0.00 79 1015.2
20260506081016 65 113 0.0 1.0 0.00 0.00 0.00 78 1015.2
20260506080516 65 123 0.0 0.0 0.00 0.00 0.00 79 1015.2
20260506073516 65 123 0.0 0.0 0.00 0.00 0.00 76 1015.1
20260506073016 65 123 0.0 0.0 0.00 0.00 0.00 76 1015.2
20260506072516 65 123 0.0 0.0 0.00 0.00 0.00 75 1015.1
20260506072016 65 123 0.0 0.0 0.00 0.00 0.00 75 1015.1
20260506071516 66 123 0.0 0.0 0.00 0.00 0.00 74 1015.2
20260506071016 66 123 0.0 0.0 0.00 0.00 0.00 74 1015.1
20260506070516 66 123 0.0 0.0 0.00 0.00 0.00 73 1015.2
20260506062516 67 66 0.0 0.0 0.00 0.00 0.00 70 1014.8
20260506062016 67 68 0.0 1.0 0.00 0.00 0.00 69 1014.8
20260506061516 67 68 0.0 1.0 0.00 0.00 0.00 69 1014.9
20260506061016 67 68 0.0 1.0 0.00 0.00 0.00 67 1014.8
20260506060516 67 68 0.0 1.0 0.00 0.00 0.00 66 1014.8
20260506051015 67 0 0.0 1.0 0.00 0.00 0.00 61 1015.1
20260506050516 67 23 0.0 2.0 0.00 0.00 0.00 61 1015.0
20260506045017 67 0 0.0 2.0 0.00 0.00 0.00 62 1014.8
20260506044517 67 0 0.0 1.0 0.00 0.00 0.00 63 1015.0
20260506044017 67 5 0.0 0.0 0.00 0.00 0.00 63 1015.1
20260506043518 67 5 0.0 0.0 0.00 0.00 0.00 62 1015.2
20260506043037 67 5 0.0 0.0 0.00 0.00 0.00 61 1015.3
20260506042537 67 0 0.0 1.0 0.00 0.00 0.00 62 1015.2
20260506042016 67 0 0.0 1.0 0.00 0.00 0.00 62 1015.1
20260506041517 67 0 0.0 1.0 0.00 0.00 0.00 61 1015.2
20260506041016 67 0 0.0 1.0 0.00 0.00 0.00 62 1015.3
20260506040517 68 5 0.0 0.0 0.00 0.00 0.00 60 1015.3
20260506040016 68 0 0.0 1.0 0.00 0.00 0.00 60 1015.2
20260506035517 68 0 0.0 1.0 0.00 0.00 0.00 58 1015.0
20260506035017 68 5 0.0 0.0 0.00 0.00 0.00 58 1015.3
20260506034537 68 0 0.0 2.0 0.00 0.00 0.00 58 1015.1
20260506034017 68 0 0.0 1.0 0.00 0.00 0.00 57 1014.9
20260506033537 68 0 0.0 1.0 0.00 0.00 0.00 58 1015.1
20260506033017 69 0 0.0 1.0 0.00 0.00 0.00 57 1015.0
20260506032517 69 0 0.0 1.0 0.00 0.00 0.00 56 1015.1
20260506032017 69 293 0.0 0.0 0.00 0.00 0.00 56 1015.1
20260506031517 69 293 0.0 0.0 0.00 0.00 0.00 55 1015.1
20260506031017 69 293 0.0 0.0 0.00 0.00 0.00 53 1015.1
20260506030542 69 293 0.0 0.0 0.00 0.00 0.00 53 1015.2
20260506030017 69 293 0.0 1.0 0.00 0.00 0.00 54 1015.3
20260506025537 69 272 0.0 0.0 0.00 0.00 0.00 53 1015.5
20260506025016 70 272 0.0 0.0 0.00 0.00 0.00 52 1015.5
20260506024517 70 270 0.0 1.0 0.00 0.00 0.00 52 1015.5
20260506024017 70 272 0.0 0.0 0.00 0.00 0.00 51 1015.5
20260506023517 70 270 0.0 1.0 0.00 0.00 0.00 50 1015.4
20260506023016 70 272 0.0 0.0 0.00 0.00 0.00 51 1015.3
20260506022518 70 270 0.0 1.0 0.00 0.00 0.00 52 1015.2
20260506022017 70 272 0.0 0.0 0.00 0.00 0.00 51 1015.3
20260506021536 71 272 0.0 0.0 0.00 0.00 0.00 49 1015.3
20260506021019 71 272 0.0 0.0 0.00 0.00 0.00 48 1015.3
20260506020537 71 272 0.0 0.0 0.00 0.00 0.00 48 1015.2
20260506020017 71 272 0.0 0.0 0.00 0.00 0.00 47 1015.1
20260506015557 71 272 0.0 0.0 0.00 0.00 0.00 47 1015.1
20260506015017 71 272 0.0 0.0 0.00 0.00 0.00 47 1015.1
20260506014537 72 270 0.0 1.0 0.00 0.00 0.00 46 1015.0
20260506014016 72 272 0.0 0.0 0.00 0.00 0.00 45 1015.0
20260506013516 72 272 0.0 0.0 0.00 0.00 0.00 45 1014.9
20260506013017 72 272 0.0 0.0 0.00 0.00 0.00 45 1014.9
20260506012516 72 272 0.0 0.0 0.00 0.00 0.00 47 1014.8
20260506012016 73 272 0.0 0.0 0.00 0.00 0.00 44 1014.9
20260506011516 73 272 0.0 0.0 0.00 0.00 0.00 46 1014.8
20260506011017 74 272 0.0 0.0 0.00 0.00 0.00 43 1015.0
20260506010601 74 272 0.0 0.0 0.00 0.00 0.00 43 1014.9
20260506010016 74 272 0.0 0.0 0.00 0.00 0.00 44 1014.9
20260506005516 75 272 0.0 0.0 0.00 0.00 0.00 43 1014.9
20260506005016 75 272 0.0 0.0 0.00 0.00 0.00 42 1014.8
20260506004519 76 272 0.0 0.0 0.00 0.00 0.00 42 1014.7
20260506004036 77 272 0.0 0.0 0.00 0.00 0.00 43 1014.7
20260506003516 77 270 0.0 1.0 0.00 0.00 0.00 42 1014.7
20260506003016 77 270 0.0 1.0 0.00 0.00 0.00 42 1014.7
20260506002516 78 248 0.0 2.0 0.00 0.00 0.00 40 1014.6
20260506002016 78 248 0.0 1.0 0.00 0.00 0.00 40 1014.6
20260506001516 79 248 0.0 2.0 0.00 0.00 0.00 40 1014.6
20260506001036 80 248 0.0 1.0 0.00 0.00 0.00 39 1014.6
20260506000516 80 248 0.0 2.0 0.00 0.00 0.00 39 1014.6
20260506000017 81 248 1.0 3.0 0.00 0.00 0.00 39 1014.5
20260505235516 81 225 0.0 2.0 0.00 0.00 0.00 39 1014.4
20260505235036 82 225 1.0 3.0 0.00 0.00 0.00 40 1014.3
20260505234537 82 203 0.0 2.0 0.00 0.00 0.00 39 1014.2
20260505234016 82 203 0.0 1.0 0.00 0.00 0.00 40 1014.3
20260505233516 82 270 1.0 3.0 0.00 0.00 0.00 40 1014.1
20260505233038 82 203 0.0 2.0 0.00 0.00 0.00 40 1014.0
20260505232516 83 203 0.0 2.0 0.00 0.00 0.00 39 1014.0
20260505232016 83 203 1.0 3.0 0.00 0.00 0.00 38 1014.0
20260505231516 83 203 0.0 2.0 0.00 0.00 0.00 38 1014.0
20260505231016 83 248 0.0 2.0 0.00 0.00 0.00 38 1014.0
20260505230516 83 203 0.0 3.0 0.00 0.00 0.00 38 1014.0
20260505230016 83 203 1.0 2.0 0.00 0.00 0.00 37 1014.0
20260505225537 83 180 1.0 2.0 0.00 0.00 0.00 37 1014.0
20260505225016 84 203 1.0 3.0 0.00 0.00 0.00 38 1014.0
20260505224516 84 180 0.0 2.0 0.00 0.00 0.00 38 1013.9
20260505224016 84 203 1.0 2.0 0.00 0.00 0.00 38 1013.9
20260505223516 84 203 1.0 2.0 0.00 0.00 0.00 38 1013.9
20260505223016 84 180 1.0 2.0 0.00 0.00 0.00 37 1014.0
20260505222516 84 45 0.0 2.0 0.00 0.00 0.00 40 1014.0
20260505222036 84 203 1.0 3.0 0.00 0.00 0.00 38 1013.9
20260505221516 84 203 0.0 2.0 0.00 0.00 0.00 38 1014.0
20260505221018 84 180 0.0 1.0 0.00 0.00 0.00 40 1013.9
20260505220556 84 203 0.0 2.0 0.00 0.00 0.00 40 1014.0
20260505220016 84 248 1.0 3.0 0.00 0.00 0.00 40 1014.0
20260505215516 84 225 1.0 3.0 0.00 0.00 0.00 37 1014.0
20260505215016 84 203 1.0 3.0 0.00 0.00 0.00 38 1014.2
20260505214516 84 203 1.0 7.0 0.00 0.00 0.00 38 1014.1
20260505214016 84 203 1.0 3.0 0.00 0.00 0.00 40 1014.2
20260505213516 84 203 1.0 5.0 0.00 0.00 0.00 38 1014.4